Regional Weather Roundup
Issued by NWS

Home | Current Version | Previous Version | Text Only | Print | Product List | Glossary Off
Versions: 1 2 3 4 5 6 7 8 9 10 11 12 13 14 15 16 17 18 19 20 21 22 23 24 25 26 27 28 29 30 31 32 33 34 35 36 37 38 39 40 41 42 43 44 45 46 47 48 49 50

169
ASUS44 KLIX 261211
RWRLA
LOUISIANA WEATHER ROUNDUP
NATIONAL WEATHER SERVICE NEW ORLEANS LA
700 AM CDT THU MAR 26 2015

NOTE: "FAIR" INDICATES FEW OR NO CLOUDS BELOW 12,000 FEET WITH NO
      SIGNIFICANT WEATHER AND/OR OBSTRUCTIONS TO VISIBILITY.
      SKY/WX - SKY CONDITION AND SIGNIFICANT WEATHER.
      TMP - AIR TEMPERATURE.    DP   - DEWPOINT TEMPERATURE.
      RH  - RELATIVE HUMIDITY.  PRES - PRESSURE.
      HX  - HEAT INDEX.         WCI  - WIND CHILL INDEX.

*  THESE STATIONS ARE NOT NWS OR FAA STATIONS AND ARE NOT UNDER
   NWS QUALITY CONTROL.

LAZ040-048-061>063-065-066-069-261300-
SOUTHEAST LOUISIANA

CITY           SKY/WX    TMP DP  RH WIND       PRES   REMARKS
N.O. AUDUBON     N/A     67  66  99 MISG        N/A
6HR MIN TEMP:  66; 6HR MAX TEMP:  70;

N.O. INTL ARPT CLOUDY    68  64  87 E3        29.90F
6HR MIN TEMP:  66; 6HR MAX TEMP:  68;

N.O. LAKEFRONT CLOUDY    70  65  84 E5        29.91S
6HR MIN TEMP:  69; 6HR MAX TEMP:  70;

SLIDELL        CLOUDY    64  63  96 CALM      29.92R
6HR MIN TEMP:  59; 6HR MAX TEMP:  64;

BATON ROUGE    MOCLDY    63  61  93 NE3       29.91S
6HR MIN TEMP:  62; 6HR MAX TEMP:  66;

BOOTHVILLE     RAIN      64  63  96 CALM      29.91S VSB 1/2
6HR MIN TEMP:  63; 6HR MAX TEMP:  67; 6HR PCP:  0.01;

BELLE CHASSE   CLOUDY    68  65  90 NE3       29.89F
6HR MIN TEMP:  67; 6HR MAX TEMP:  69;

BOGALUSA*        N/A     61  58  90 N3        29.95R
6HR MIN TEMP:  60; 6HR MAX TEMP:  67;

GALLIANO*      CLOUDY    69  67  94 S3        29.91R
6HR MIN TEMP:  69; 6HR MAX TEMP:  72;

NEW ROADS*     CLOUDY    59  58  96 N6        29.93R FOG
6HR MIN TEMP:  59; 6HR MAX TEMP:  64;

GONZALES*      FAIR      64  64 100 CALM      29.90F
6HR MIN TEMP:  64; 6HR MAX TEMP:  67;

HAMMOND*       CLOUDY    63  61  94 CALM      29.94R
HOUMA*         MOCLDY    70  70 100 CALM      29.90S
PORT FOURCHON* CLOUDY    72  68  88 SW14      29.94R

$$

LAZ041-044-053-054-261300-
SOUTHWEST LOUISIANA

CITY           SKY/WX    TMP DP  RH WIND       PRES   REMARKS
LAKE CHARLES   FOG       63  62  97 N3        29.90R VSB 1/2
6HR MIN TEMP:  59; 6HR MAX TEMP:  64;

LAFAYETTE      CLOUDY    64  61  90 CALM      29.90S
6HR MIN TEMP:  63; 6HR MAX TEMP:  66;

PATTERSON      CLOUDY    66  63  88 CALM      29.91S
6HR MIN TEMP:  64; 6HR MAX TEMP:  66;

SALT POINT       N/A     67  67 100 CALM      29.88S
6HR MIN TEMP:  65; 6HR MAX TEMP:  68;

NEW IBERIA     MOCLDY    64  62  93 NE3       29.91R
6HR MIN TEMP:  64; 6HR MAX TEMP:  67;

CHENAULT AIRPK MOCLDY    63  63 100 CALM      29.91R FOG

$$

LAZ027-028-261300-
CENTRAL LOUISIANA

CITY           SKY/WX    TMP DP  RH WIND       PRES   REMARKS
FORT POLK      CLOUDY    63  61  94 NW5       29.91S
ALEXANDRIA INT CLOUDY    60  59  96 CALM      29.91F
6HR MIN TEMP:  56; 6HR MAX TEMP:  62;

ALEXANDRIA     CLOUDY    56  55  97 CALM      29.93F
6HR MIN TEMP:  52; 6HR MAX TEMP:  62;


$$

LAZ001-002-261300-
NORTHWEST LOUISIANA

CITY           SKY/WX    TMP DP  RH WIND       PRES   REMARKS
SHREVEPORT     CLOUDY    63  59  87 S6        29.87S
6HR MIN TEMP:  61; 6HR MAX TEMP:  65;

BARKSDALE AFB  CLOUDY    62  59  93 SE6       29.87S
6HR MIN TEMP:  60; 6HR MAX TEMP:  65;

DTN SHREVEPORT CLOUDY    62  57  83 S5        29.87S
6HR MIN TEMP:  61; 6HR MAX TEMP:  65;


$$

LAZ014-016-261300-
NORTHEAST LOUISIANA

CITY           SKY/WX    TMP DP  RH WIND       PRES   REMARKS
MONROE         PTCLDY    58  57  97 CALM      29.93F
6HR MIN TEMP:  56; 6HR MAX TEMP:  64;

TALLULAH       MOCLDY    57  55  93 CALM      29.96S
6HR MIN TEMP:  56; 6HR MAX TEMP:  65;


$$




USA.gov is the U.S. government's official web portal to all federal, state and local government web resources and services.